Regional Weather Roundup
Issued by NWS Newport/Morehead, NC

Current Version | Previous Version | Text Only | Print | Product List | Glossary Off
Versions: 1 2 3 4 5 6 7 8 9 10 11 12 13 14 15 16 17 18 19 20 21 22 23 24 25 26 27 28 29 30 31 32 33 34 35 36 37 38 39 40 41 42 43 44 45 46 47 48 49 50
146 ASUS42 KMHX 191613 RWRMHX WEATHER ROUNDUP FOR EASTERN NORTH CAROLINA NATIONAL WEATHER SERVICE NEWPORT/MOREHEAD CITY NC 1100 AM EST SUN NOV 19 2017 NOTE: "FAIR" INDICATES FEW OR NO CLOUDS BELOW 12,000 FEET WITH NO SIGNIFICANT WEATHER AND/OR OBSTRUCTIONS TO VISIBILITY NCZ015>017-031-032-045>047-102-103-191700- NORTH COAST CITY SKY/WX TMP DP RH WIND PRES REMARKS EDENTON SUNNY 60 44 55 NW12G22 29.74R ELIZABETH CITY CLOUDY 60 43 53 NW14G30 29.70R KITTY HAWK PTSUNNY 58 44 60 W15G25 29.69R MANTEO PTSUNNY 59 48 66 NW13 29.71R $$ NCZ045>047-081-094-103-104-191700- CENTRAL COAST CITY SKY/WX TMP DP RH WIND PRES REMARKS FRISCO CLOUDY 62 57 83 NW12G21 29.69F $$ NCZ095-097-098-100-101-191700- SOUTHERN COAST CITY SKY/WX TMP DP RH WIND PRES REMARKS BEAUFORT MOSUNNY 64 47 53 NW21 29.74R CEDAR ISLAND NOT AVBL JACKSONVILLE NOT AVBL PINEY ISLAND NOT AVBL WILMINGTON MOSUNNY 62 42 47 NW14G24 29.79R $$ NCZ011>013-027>030-043-044-078>080-089-090>093-098-191700- COASTAL PLAIN CITY SKY/WX TMP DP RH WIND PRES REMARKS AHOSKIE SUNNY 57 36 45 NW9 29.76R CLINTON SUNNY 59 40 48 W9G17 29.82S ELIZABETHTOWN NOT AVBL GOLDSBORO SUNNY 60 37 41 NW15G22 29.79R GREENVILLE SUNNY 59 36 41 NW12G22 29.80S HAVELOCK NOT AVBL KENANSVILLE MOSUNNY 59 39 47 NW15G22 29.81R KINSTON MOSUNNY 59 39 47 NW13G22 29.80R NEW BERN PTSUNNY 59 42 53 NW15G24 29.78R RICHLANDS MOSUNNY 61 40 45 N9G17 29.80R ROCKY MOUNT SUNNY 58 35 42 W15G21 29.80R WASHINGTON MOSUNNY 58 40 52 W10G20 29.76R WHITEVILLE MOSUNNY 61 42 49 NW6 29.82S $$ AMZ130-135-150-152-154-156-158-170-250-252-270-ANZ085-086-088-633-658-670-191700- MARINE OBSERVATIONS STATION/POSITION TIME TEMP WIND PRES WAVE SWELL AIR SEA DIR/SP/G HT/PER HT/PER (UTC) (F) (DEG/KT/KT) (MB) (FT/S) (FT/S) CHESAPEAKE LIGHT NOT AVBL 64 E VA BEACH 1550 60 62 310/ 25/ 31 1003.6 7/ 9 3/ 9 DUCK 1548 58 61 300/ 17/ 25 1004.9 2 E DUCK 1600 62 N/A 2/ 3 OREGON INLET 1536 57 57 290/ 12/ 20 1005.3 13E OREGON INLT 1548 63 N/A 5/ 8 3/ 8 HATTERAS CG 1548 60 61 290/ 20/ 24 1005.3 DIAMOND BUOY 1600 63 65 290/ 25/ 31 1005.5 CAPE LOOKOUT 1600 310/ 15/ 21 1007.0 BEAUFORT LAB 1548 62 61 330/ 11/ 19 1006.9 30 SE NEW RVR IN 1508 66 68 260/ 17/ 21 1006.7 30 SE NEW RVR IN 1600 68 N/A 10/ 8 2/11 27 SE WRIGHTSVLE 1508 66 68 260/ 21/ 29 1006.9 5 SE WRIGHTSVLE 1508 63 64 320/ 17/ 25 1007.4 225 S CAPE HAT 1550 76 76 230/ 23/ 27 1009.7 8/ 6 2/11 41 SE CHARLESTON 1600 65 74 290/ 17/ 23 1010.0 $$

USA.gov is the U.S. government's official web portal to all federal, state and local government web resources and services.